Regional Weather Roundup
Issued by NWS

Home | Current Version | Previous Version | Text Only | Print | Product List | Glossary Off
Versions: 1 2 3 4 5 6 7 8 9 10 11 12 13 14 15 16 17 18 19 20 21 22 23 24 25 26 27 28 29 30 31 32 33 34 35 36 37 38 39 40 41 42 43 44 45 46 47 48 49 50

000
ASUS43 KBIS 270220
RWRND

NORTH DAKOTA REGIONAL WEATHER ROUNDUP
NATIONAL WEATHER SERVICE BISMARCK ND
800 PM CST THU FEB 26 2015

NOTE: "FAIR" INDICATES FEW OR NO CLOUDS BELOW 12,000 FEET WITH NO
SIGNIFICANT WEATHER AND/OR OBSTRUCTIONS TO VISIBILITY.


NDZ001>003-009>011-017-270300-
NORTHWEST NORTH DAKOTA

CITY           SKY/WX    TMP DP  RH WIND       PRES   REMARKS
WILLISTON        N/A     -8 -14  74 MISG      30.49F
MINOT          CLEAR     -1 -10  65 W9        30.49F WCI -16
$$

NDZ018>021-031>035-040>046-270300-
SOUTHWEST NORTH DAKOTA

CITY           SKY/WX    TMP DP  RH WIND       PRES   REMARKS
BISMARCK       CLEAR      3  -5  69 NW9       30.53S WCI -12
DICKINSON      CLEAR      2  -7  66 E6        30.41F WCI  -9
GARRISON         N/A     -5 -11  75 NW5       30.49F WCI -16
HETTINGER ARPT CLEAR      0  -7  72 N5        30.43S WCI -10
$$

NDZ004>008-012>016-024-026-027-054-270300-
NORTHEAST NORTH DAKOTA

CITY           SKY/WX    TMP DP  RH WIND       PRES   REMARKS
GRAND FORKS    PTCLDY    -5 -12  72 W5        30.51F WCI -16
DEVILS LAKE    CLEAR    N/A N/A N/A MISG        N/A
$$

NDZ022-023-025-028>030-036>039-047>053-270300-
SOUTHEAST NORTH DAKOTA

CITY           SKY/WX    TMP DP  RH WIND       PRES   REMARKS
FARGO          CLEAR      2  -7  66 W10       30.53R WCI -14
JAMESTOWN      CLEAR     -5 -11  75 NW9       30.48F WCI -22
$$




USA.gov is the U.S. government's official web portal to all federal, state and local government web resources and services.